Find Starlink 32142

NORAD ID: 60291 Int'l Des: 2024-132 Owner: SPXS Country: US Constellation: starlink operational
LEOCIRCULAR

实时位置

正在加载3D地球...

关于 Starlink 32142

正在加载描述...

即将过境

Passes for default location (London). Set your location on the main map for personalized predictions.

高度历史

Loading altitude history...

两行轨道根数

1 60291U 24132P 26123.35438225 .00000646 00000-0 33940-4 0 9995
2 60291 53.1606 158.2436 0001282 91.5280 268.5868 15.30193569 99933
Epoch: May 3, 2026 • Age: 19 hours

当前状态

高度 480.9 km
速度 7.63 km/s
星下点 53.11°N, 39.87°W
发射日期 Jul 28, 2024
运行时间 1.7 years
类型 internet

技术详情

分类 Payload
质量 730.00 kg
干质量 700.00 kg
总质量 730.00 kg
长度 0.30 m
直径 4.10 m
跨度 29.00 m
形状 Box + pan
制造商 SPXS
平台类型 Starlink V2M
阶段状态 In Orbit
所有者/国家 SPXS/US

Most Searched